Regional Weather Roundup
Issued by NWS Kansas City/Pleasant Hill, MO

Home | Current Version | Previous Version | Graphics & Text | Print | Product List | Glossary Off
Versions: 1 2 3 4 5 6 7 8 9 10 11 12 13 14 15 16 17 18 19 20 21 22 23 24 25 26 27 28 29 30 31 32 33 34 35 36 37 38 39 40 41 42 43 44 45 46 47 48 49 50

000
ASUS43 KEAX 212110
RWREAX

WEATHER ROUNDUP FOR EASTERN KANSAS AND NORTHWEST MISSOURI
NATIONAL WEATHER SERVICE KANSAS CITY/PLEASANT HILL MO
400 PM CDT MON AUG 21 2017

KSZ040-057-103>105-MOZ028-029-037-043-212200-
...KANSAS CITY METROPOLITAN AREA...

CITY           SKY/WX    TMP DP  RH WIND       PRES   REMARKS
K.C. INTL      CLOUDY    76  72  87 SE15      29.99F THUNDER
K.C. DOWNTOWN  TSTM      74  72  93 E9        29.99F
LEES SUMMIT    CLOUDY    75  72  90 NE9       30.04R
OLATHE - IXD   MOSUNNY   89  76  65 S10G22    29.99F HX 100
OLATHE - OJC   CLOUDY    86  77  74 S16       30.00F HX  97
LAWRENCE       MOSUNNY   86  79  79 E6        29.96F HX  99

$$

MOZ001>008-011>017-020>025-030>033-038>040-044>046-053-054-212200-
...NORTHERN AND CENTRAL MISSOURI...

CITY           SKY/WX    TMP DP  RH WIND       PRES   REMARKS
ST. JOSEPH     CLOUDY    82  74  76 SE15      29.97S
WARRENSBURG    PTSUNNY   86  73  66 SE8       30.01S HX  93
WHITEMAN AFB   PTSUNNY   86  81  84 S8        30.01F HX 103
CLINTON        MOSUNNY   90  77  66 S8        30.02F HX 102
SEDALIA        MOSUNNY   90  78  68 SW9       30.04F HX 104
WARSAW         NOT AVBL
CHILLICOTHE      N/A     75  74  96 S9        30.03F
KIRKSVILLE     MOSUNNY   78 N/A N/A S10       30.02F

$$

MOZ041-047>049-056>058-063>065-088>090-097-212200-
...EASTERN AND SOUTHERN MISSOURI...

CITY           SKY/WX    TMP DP  RH WIND       PRES   REMARKS
ST. LOUIS INTL CLOUDY    87  71  58 VRB6G25   30.04S THUNDER HX  93
SPIRIT OF STL  MOSUNNY   94  74  52 SW8       30.01F HX 104
COLUMBIA       PTSUNNY   88  74  63 CALM      30.03F HX  96
JEFFERSON CITY MOSUNNY   90  74  59 S10       30.00F HX  99
ROLLA          MOSUNNY   90  73  57 SW12      30.06F HX  98
SPRINGFIELD    MOSUNNY   88  75  65 S12       30.06F HX  97
BRANSON        MOSUNNY   90  72  55 SW5       30.10F HX  96
JOPLIN         SUNNY     91  75  59 SW15      30.04F HX 101
WEST PLAINS    MOSUNNY   88  70  55 S9        30.11F HX  93

$$

IAZ060-094-KSZ022-034>040-054-083-096-NEZ052-066-093-212200-
...KANSAS...SOUTHEAST NEBRASKA AND IOWA...

CITY           SKY/WX    TMP DP  RH WIND       PRES   REMARKS
TOPEKA         MOSUNNY   90  76  63 S12G24    29.94F HX 101
MANHATTAN      CLOUDY    92  75  57 SW8       29.94F HX 103
EMPORIA        SUNNY     91  73  55 S22G30    29.96F HX  99
CHANUTE        SUNNY     90  77  65 S15       30.00F HX 103
WICHITA        PTSUNNY   95  70  44 S20       29.97F HX 101
OMAHA          CLOUDY    81  71  71 S13       29.93F
LINCOLN        CLOUDY    84  71  65 S13       29.94S
FALLS CITY     PTSUNNY   86  72  62 S12       29.94F HX  92
LAMONI         MOSUNNY   78  70  76 S10       29.97F
DES MOINES     CLOUDY    82  70  66 S9        29.93F

$$




USA.gov is the U.S. government's official web portal to all federal, state and local government web resources and services.